QPF
0.02 0.00 0.00 0.00 0.00 0.00 0.01 0.00 0.00 0.01 0.02 0.03 0.01 0.05 0.06 0.00 0.00 0.00 0.00 0.01 0.04 0.12 0.12 0.13 0.10 0.00 0.00 0.00 0.00 0.00 0.00 0.00 0.00 0.00 0.00 0.00 0.00 0.00 0.01 0.01 0.03 0.01 0.00
0.02 0.00 0.00 0.00 0.00 0.00 0.00 0.00 0.00 0.00 0.00 0.03 0.05 0.07 0.11 0.03 0.01 0.04 0.06 0.07 0.10 0.23 0.17 0.10 0.02 0.00 0.00 0.00 0.00 0.00 0.00 0.00 0.00 0.00 0.00 0.00 0.00 0.00 0.00 0.02 0.04 0.00 0.01
0.00 0.00 0.00 0.00 0.00 0.00 0.00 0.00 0.00 0.00 0.01 0.06 0.06 0.06 0.03 0.06 0.10 0.13 0.09 0.05 0.06 0.15 0.13 0.01 0.00 0.01 0.01 0.00 0.00 0.00 0.00 0.00 0.00 0.01 0.03 0.00 0.00 0.00 0.00 0.00 0.00 0.00 0.00
0.01 0.03 0.01 0.07 0.03 0.01 0.00 0.00 0.00 0.00 0.00 0.00 0.00 0.01 0.13 0.10 0.10 0.08 0.06 0.12 0.14 0.04 0.01 0.00 0.00 0.00 0.00 0.00 0.00 0.00 0.00 0.00 0.00 0.08 0.07 0.01 0.00 0.00 0.00 0.00 0.00 0.00 0.00
0.03 0.06 0.01 0.07 0.10 0.09 0.03 0.01 0.00 0.00 0.00 0.00 0.00 0.00 0.07 0.14 0.04 0.07 0.03 0.01 0.04 0.02 0.00 0.00 0.00 0.00 0.00 0.00 0.00 0.00 0.00 0.00 0.00 0.06 0.01 0.00 0.00 0.00 0.00 0.00 0.00 0.00 0.00
0.02 0.02 0.00 0.05 0.09 0.12 0.12 0.07 0.00 0.01 0.02 0.00 0.00 0.00 0.03 0.16 0.15 0.10 0.06 0.06 0.03 0.01 0.00 0.00 0.00 0.00 0.00 0.00 0.00 0.00 0.00 0.00 0.00 0.00 0.00 0.00 0.00 0.00 0.00 0.00 0.00 0.00 0.00
0.04 0.00 0.00 0.01 0.04 0.07 0.08 0.11 0.05 0.03 0.00 0.00 0.00 0.00 0.03 0.14 0.14 0.19 0.07 0.01 0.00 0.00 0.00 0.00 0.00 0.00 0.00 0.00 0.00 0.00 0.00 0.00 0.00 0.00 0.00 0.00 0.00 0.00 0.00 0.00 0.00 0.00 0.00
0.00 0.00 0.00 0.02 0.06 0.06 0.08 0.08 0.09 0.11 0.00 0.00 0.00 0.02 0.02 0.03 0.15 0.15 0.07 0.01 0.00 0.00 0.00 0.00 0.00 0.00 0.00 0.00 0.00 0.00 0.00 0.00 0.00 0.00 0.00 0.00 0.00 0.00 0.00 0.00 0.00 0.00 0.00
0.00 0.00 0.00 0.00 0.05 0.02 0.06 0.12 0.04 0.03 0.00 0.00 0.01 0.02 0.03 0.07 0.11 0.03 0.00 0.00 0.00 0.00 0.00 0.00 0.00 0.00 0.00 0.00 0.00 0.00 0.00 0.00 0.00 0.00 0.00 0.00 0.00 0.00 0.00 0.00 0.00 0.00 0.00
0.00 0.00 0.00 0.00 0.00 0.01 0.02 0.09 0.00 0.00 0.00 0.00 0.03 0.02 0.02 0.00 0.00 0.00 0.00 0.00 0.00 0.00 0.00 0.00 0.00 0.00 0.00 0.00 0.00 0.00 0.00 0.00 0.00 0.00 0.00 0.00 0.00 0.00 0.00 0.00 0.00 0.00 0.00
0.00 0.00 0.00 0.00 0.00 0.01 0.06 0.05 0.00 0.00 0.00 0.00 0.01 0.00 0.01 0.03 0.00 0.00 0.00 0.00 0.00 0.00 0.00 0.00 0.00 0.00 0.00 0.00 0.00 0.00 0.00 0.00 0.00 0.01 0.03 0.00 0.00 0.00 0.00 0.00 0.00 0.00 0.00
0.00 0.00 0.00 0.00 0.00 0.02 0.03 0.09 0.02 0.00 0.00 0.00 0.00 0.02 0.04 0.13 0.01 0.00 0.00 0.00 0.00 0.00 0.00 0.00 0.00 0.00 0.00 0.00 0.00 0.00 0.00 0.00 0.00 0.02 0.03 0.00 0.00 0.00 0.00 0.00 0.00 0.00 0.00
0.02 0.00 0.00 0.00 0.00 0.01 0.03 0.01 0.01 0.03 0.02 0.00 0.00 0.02 0.02 0.04 0.00 0.00 0.00 0.00 0.00 0.00 0.00 0.00 0.00 0.00 0.00 0.00 0.00 0.00 0.00 0.04 0.16 0.18 0.01 0.00 0.00 0.00 0.00 0.00 0.00 0.00 0.00
0.00 0.00 0.00 0.00 0.01 0.03 0.01 0.00 0.01 0.19 0.14 0.01 0.00 0.00 0.00 0.00 0.00 0.00 0.00 0.01 0.02 0.00 0.00 0.06 0.00 0.00 0.00 0.00 0.00 0.00 0.00 0.02 0.06 0.01 0.00 0.00 0.00 0.00 0.00 0.00 0.00 0.00 0.00
0.02 0.00 0.00 0.00 0.03 0.03 0.02 0.01 0.00 0.04 0.05 0.00 0.00 0.00 0.00 0.00 0.00 0.02 0.01 0.15 0.41 0.03 0.00 0.03 0.00 0.00 0.00 0.00 0.00 0.00 0.00 0.00 0.00 0.00 0.00 0.13 0.04 0.00 0.00 0.00 0.00 0.00 0.00
0.01 0.01 0.00 0.00 0.00 0.01 0.02 0.02 0.00 0.00 0.00 0.00 0.00 0.00 0.00 0.00 0.03 0.03 0.23 0.13 0.32 0.19 0.00 0.00 0.00 0.00 0.00 0.01 0.00 0.00 0.00 0.00 0.00 0.00 0.00 0.23 0.02 0.00 0.00 0.00 0.00 0.00 0.00
0.00 0.00 0.00 0.00 0.00 0.00 0.00 0.00 0.00 0.00 0.00 0.00 0.00 0.00 0.00 0.04 0.17 0.27 0.21 0.11 0.01 0.00 0.00 0.00 0.00 0.00 0.00 0.00 0.00 0.00 0.00 0.00 0.00 0.00 0.05 0.06 0.00 0.00 0.00 0.00 0.00 0.00 0.00
0.00 0.00 0.00 0.00 0.00 0.00 0.00 0.00 0.00 0.02 0.00 0.00 0.00 0.00 0.00 0.09 0.01 0.07 0.19 0.00 0.00 0.00 0.00 0.00 0.00 0.00 0.00 0.00 0.01 0.00 0.00 0.00 0.01 0.32 0.12 0.00 0.00 0.00 0.00 0.00 0.00 0.00 0.00
0.00 0.00 0.00 0.00 0.00 0.00 0.00 0.01 0.15 0.01 0.00 0.00 0.00 0.00 0.00 0.00 0.00 0.00 0.06 0.00 0.00 0.00 0.00 0.03 0.01 0.00 0.00 0.02 0.23 0.12 0.02 0.00 0.00 0.06 0.00 0.00 0.00 0.00 0.03 0.00 0.00 0.00 0.00
0.00 0.00 0.00 0.00 0.00 0.00 0.00 0.02 0.12 0.01 0.00 0.01 0.00 0.00 0.00 0.00 0.00 0.00 0.00 0.00 0.00 0.00 0.00 0.00 0.00 0.00 0.00 0.00 0.00 0.00 0.02 0.02 0.00 0.00 0.00 0.00 0.00 0.00 0.03 0.10 0.46 0.16 0.01
0.00 0.00 0.00 0.00 0.00 0.00 0.00 0.00 0.01 0.00 0.00 0.00 0.00 0.00 0.00 0.00 0.00 0.00 0.00 0.00 0.00 0.00 0.00 0.00 0.00 0.00 0.00 0.00 0.00 0.00 0.05 0.16 0.03 0.01 0.00 0.00 0.00 0.00 0.00 0.03 0.14 0.07 0.04
0.00 0.00 0.00 0.00 0.00 0.00 0.00 0.00 0.00 0.00 0.00 0.00 0.00 0.01 0.00 0.00 0.00 0.00 0.00 0.00 0.00 0.00 0.00 0.00 0.00 0.00 0.00 0.00 0.00 0.00 0.09 0.29 0.03 0.01 0.00 0.00 0.00 0.08 0.00 0.00 0.02 0.01 0.05
0.01 0.00 0.00 0.00 0.00 0.00 0.00 0.00 0.00 0.01 0.01 0.05 0.07 0.00 0.00 0.00 0.00 0.00 0.00 0.00 0.00 0.00 0.01 0.00 0.00 0.00 0.00 0.00 0.00 0.00 0.02 0.03 0.01 0.02 0.02 0.01 0.00 0.04 0.01 0.05 0.15 0.02 0.02
0.12 0.00 0.00 0.00 0.00 0.00 0.00 0.00 0.00 0.00 0.00 0.00 0.00 0.00 0.00 0.00 0.00 0.00 0.00 0.00 0.00 0.00 0.01 0.00 0.00 0.00 0.00 0.00 0.00 0.00 0.00 0.00 0.00 0.01 0.01 0.01 0.00 0.00 0.00 0.22 0.54 0.10 0.02
0.00 0.00 0.00 0.00 0.00 0.01 0.00 0.02 0.02 0.00 0.03 0.10 0.03 0.01 0.02 0.01 0.00 0.00 0.00 0.00 0.00 0.01 0.01 0.03 0.02 0.00 0.00 0.01 0.00 0.00 0.00 0.00 0.00 0.00 0.00 0.00 0.00 0.00 0.00 0.00 0.03 0.04 0.00
0.00 0.00 0.00 0.00 0.00 0.01 0.00 0.02 0.02 0.01 0.07 0.27 0.10 0.04 0.00 0.00 0.00 0.00 0.00 0.00 0.00 0.04 0.05 0.02 0.00 0.00 0.00 0.00 0.00 0.00 0.00 0.00 0.00 0.00 0.00 0.00 0.00 0.00 0.00 0.01 0.01 0.01 0.01
MSLP
1013.88 1013.67 1013.73 1013.77 1013.80 1013.92 1014.09 1014.25 1014.44 1014.43 1014.60 1014.82 1014.98 1015.15 1015.22 1015.50 1015.62 1015.55 1015.61 1015.83 1015.97 1016.04 1016.05 1016.16 1016.11 1016.21 1016.10 1016.05 1016.07 1016.11 1016.37 1016.60 1016.71 1016.75 1016.90 1017.05 1017.19 1017.24 1017.03 1016.94 1016.80 1017.07 1017.29
1013.36 1013.64 1013.92 1013.98 1014.03 1014.08 1014.33 1014.43 1014.65 1014.79 1014.89 1015.04 1015.25 1015.42 1015.53 1015.84 1015.89 1016.02 1016.00 1016.07 1016.16 1016.44 1016.45 1016.53 1016.45 1016.42 1016.37 1016.35 1016.19 1016.18 1016.35 1016.51 1016.74 1016.77 1016.77 1016.80 1016.93 1017.10 1017.09 1017.09 1017.19 1017.49 1017.48
1013.19 1013.64 1013.98 1014.22 1014.29 1014.33 1014.40 1014.56 1014.83 1015.12 1015.28 1015.33 1015.47 1015.63 1015.87 1016.08 1016.21 1016.27 1016.36 1016.34 1016.55 1016.60 1016.70 1016.70 1016.73 1016.64 1016.71 1016.63 1016.58 1016.51 1016.40 1016.54 1016.72 1016.88 1016.52 1016.61 1016.98 1017.05 1017.09 1017.10 1017.04 1016.95 1016.98
1012.71 1013.57 1014.08 1014.42 1014.43 1014.54 1014.63 1014.86 1015.12 1015.39 1015.56 1015.69 1015.80 1016.02 1016.29 1016.24 1016.41 1016.58 1016.61 1016.82 1016.88 1016.87 1016.87 1016.84 1016.80 1016.86 1016.83 1016.92 1016.87 1016.71 1016.52 1016.60 1016.85 1016.72 1016.51 1016.34 1016.58 1017.04 1017.04 1016.88 1017.00 1017.17 1017.34
1013.51 1013.88 1014.54 1014.76 1014.76 1014.87 1014.97 1015.14 1015.42 1015.75 1015.91 1016.02 1016.18 1016.30 1016.52 1016.61 1016.56 1016.75 1016.79 1016.92 1017.03 1017.05 1016.94 1016.98 1017.09 1017.06 1017.05 1017.03 1017.04 1016.91 1016.60 1016.46 1016.63 1016.49 1016.12 1016.34 1016.59 1017.05 1016.83 1016.73 1017.14 1017.44 1017.48
1013.77 1014.15 1014.81 1015.06 1015.04 1015.22 1015.14 1015.46 1015.74 1015.91 1016.11 1016.12 1016.16 1016.49 1016.73 1016.92 1016.98 1016.82 1017.11 1017.26 1017.20 1017.16 1017.10 1017.18 1017.22 1017.35 1017.36 1017.36 1017.21 1016.95 1016.75 1016.46 1016.45 1015.86 1015.99 1016.41 1016.79 1017.13 1017.19 1017.24 1017.52 1017.82 1017.98
1014.00 1014.30 1014.91 1015.29 1015.41 1015.51 1015.53 1015.77 1015.91 1016.08 1016.21 1016.33 1016.52 1016.95 1016.90 1017.29 1017.01 1017.04 1017.22 1017.17 1017.17 1017.23 1017.26 1017.31 1017.36 1017.42 1017.31 1017.25 1017.20 1016.86 1016.68 1016.44 1016.19 1015.80 1016.06 1016.63 1017.03 1017.09 1017.14 1017.46 1017.78 1018.04 1018.22
1013.95 1014.37 1015.02 1015.40 1015.71 1015.93 1015.97 1016.07 1016.21 1016.35 1016.53 1016.62 1016.82 1017.17 1017.10 1017.41 1017.39 1017.40 1017.19 1017.24 1017.23 1017.36 1017.41 1017.41 1017.35 1017.38 1017.17 1017.24 1017.01 1016.71 1016.50 1016.32 1015.57 1015.44 1016.11 1016.57 1016.88 1017.26 1017.37 1017.56 1017.84 1017.94 1017.98
1014.43 1014.99 1015.29 1015.58 1015.91 1016.06 1016.23 1016.35 1016.47 1016.67 1016.78 1016.94 1017.05 1017.17 1017.33 1017.52 1017.33 1017.29 1017.28 1017.35 1017.50 1017.69 1017.70 1017.62 1017.55 1017.46 1017.10 1017.09 1016.70 1016.41 1016.14 1015.95 1015.79 1015.26 1015.83 1016.32 1016.93 1017.09 1017.09 1017.28 1017.57 1017.62 1017.62
1014.90 1015.45 1015.73 1016.05 1016.18 1016.37 1016.49 1016.51 1016.67 1016.86 1016.93 1016.96 1017.10 1017.12 1017.32 1017.25 1017.10 1017.38 1017.57 1017.54 1017.54 1017.57 1017.68 1017.66 1017.60 1017.33 1017.06 1016.79 1016.29 1015.97 1015.66 1015.39 1015.19 1014.34 1015.20 1015.88 1016.35 1016.69 1016.80 1016.90 1017.04 1017.06 1017.24
1014.91 1015.58 1015.92 1016.24 1016.31 1016.47 1016.54 1016.74 1016.87 1016.94 1016.95 1016.89 1017.02 1017.05 1017.05 1017.04 1017.06 1017.31 1017.42 1017.33 1017.32 1017.28 1017.31 1017.26 1017.14 1017.03 1016.91 1016.61 1015.90 1015.37 1015.39 1015.27 1014.68 1015.09 1015.57 1015.83 1016.15 1016.47 1016.58 1016.64 1016.78 1016.86 1017.01
1014.49 1015.49 1016.29 1016.34 1016.44 1016.54 1016.64 1016.88 1017.01 1016.94 1016.90 1016.91 1016.83 1016.89 1017.38 1017.51 1017.26 1016.81 1017.03 1017.26 1017.11 1017.03 1016.82 1016.58 1016.47 1016.75 1016.66 1015.90 1015.13 1015.00 1015.58 1015.22 1014.22 1015.38 1016.34 1016.02 1016.07 1016.35 1016.58 1016.58 1016.62 1016.65 1016.83
1014.38 1015.28 1016.21 1016.46 1016.59 1016.62 1016.76 1016.74 1016.95 1017.10 1016.70 1016.46 1016.66 1016.29 1017.30 1017.45 1017.03 1016.47 1016.98 1016.70 1016.69 1016.63 1016.35 1015.88 1015.90 1016.17 1015.40 1014.97 1014.45 1014.28 1014.63 1015.22 1016.25 1016.78 1016.11 1015.84 1015.81 1016.06 1016.46 1016.56 1016.51 1016.58 1016.78
1014.22 1014.93 1015.70 1016.01 1016.12 1016.49 1016.37 1016.34 1017.09 1017.40 1017.20 1016.25 1016.02 1015.80 1016.14 1016.05 1016.18 1016.05 1015.92 1015.93 1015.98 1015.17 1015.04 1016.12 1015.42 1015.04 1014.48 1013.95 1013.58 1013.39 1014.00 1014.60 1016.33 1015.67 1015.95 1015.83 1015.71 1015.86 1016.30 1016.53 1016.51 1016.60 1016.70
1013.85 1013.99 1014.87 1015.81 1016.11 1015.85 1015.99 1016.12 1016.47 1017.11 1017.16 1016.05 1015.49 1015.63 1015.86 1015.93 1015.73 1016.67 1015.95 1014.79 1016.56 1016.68 1014.82 1015.40 1014.78 1014.63 1014.40 1014.05 1013.72 1013.83 1014.17 1014.49 1014.67 1015.20 1016.38 1015.18 1016.48 1016.34 1016.29 1016.39 1016.36 1016.49 1016.60
1013.52 1013.99 1014.55 1015.38 1015.60 1015.60 1015.91 1015.93 1015.56 1015.88 1015.80 1015.43 1015.27 1015.51 1015.79 1016.00 1016.29 1016.27 1016.27 1017.88 1016.61 1016.12 1014.62 1014.44 1014.72 1014.74 1014.29 1014.50 1014.17 1014.12 1014.32 1014.34 1014.45 1014.54 1015.59 1014.95 1016.09 1016.25 1016.21 1016.35 1016.21 1016.27 1016.48
1012.34 1013.21 1014.00 1014.53 1014.59 1015.06 1015.28 1015.03 1015.41 1014.96 1014.66 1015.16 1015.33 1015.56 1015.68 1016.73 1017.33 1017.47 1016.72 1016.49 1015.88 1015.68 1014.80 1014.71 1014.62 1014.41 1014.13 1014.26 1014.17 1014.45 1014.60 1014.36 1014.29 1014.42 1014.86 1015.71 1015.92 1016.32 1016.33 1016.50 1016.40 1016.40 1016.47
1011.69 1012.58 1013.11 1013.35 1014.11 1014.71 1014.80 1014.73 1015.16 1014.96 1014.85 1015.19 1015.28 1015.40 1015.59 1016.20 1016.10 1015.56 1015.78 1015.02 1015.10 1015.27 1014.94 1014.94 1014.97 1014.42 1014.44 1014.84 1015.01 1015.33 1015.26 1014.08 1015.70 1015.42 1015.57 1014.65 1015.73 1016.03 1016.71 1016.67 1016.67 1016.59 1016.57
1011.52 1012.26 1012.92 1013.15 1013.76 1014.47 1014.66 1015.41 1015.95 1015.46 1015.25 1014.64 1014.81 1015.25 1015.32 1015.44 1015.41 1015.25 1015.10 1015.56 1015.78 1015.53 1015.29 1015.30 1015.43 1014.74 1014.86 1015.79 1015.85 1016.15 1015.70 1014.56 1015.57 1015.03 1014.62 1014.62 1014.96 1015.90 1016.04 1016.51 1016.87 1017.01 1016.75
1011.47 1012.26 1012.79 1013.31 1013.71 1014.29 1014.78 1015.90 1016.94 1016.09 1015.25 1014.74 1015.23 1015.24 1015.43 1015.78 1016.00 1016.11 1016.02 1016.09 1016.16 1016.03 1015.74 1015.45 1015.37 1015.47 1015.48 1015.49 1015.54 1015.67 1016.44 1015.58 1015.25 1014.64 1014.13 1014.37 1014.86 1014.86 1016.14 1016.45 1016.31 1016.85 1016.89
1011.17 1011.95 1012.69 1013.32 1013.82 1014.23 1014.70 1015.00 1015.43 1015.43 1014.99 1015.27 1015.33 1015.14 1015.48 1016.21 1015.96 1016.13 1016.23 1016.05 1016.12 1016.06 1015.91 1015.85 1015.93 1016.11 1015.91 1015.75 1015.72 1016.44 1015.97 1015.70 1015.80 1015.47 1014.14 1014.35 1014.59 1014.59 1015.41 1015.76 1016.66 1017.48 1016.88
1011.22 1011.89 1012.38 1013.02 1013.64 1014.13 1014.42 1014.56 1014.75 1014.65 1014.62 1014.64 1014.75 1015.42 1015.29 1015.45 1015.79 1016.06 1016.09 1016.07 1015.91 1015.94 1016.00 1016.19 1016.30 1016.44 1016.13 1015.86 1015.87 1016.00 1017.50 1017.65 1016.92 1015.55 1014.70 1014.17 1015.34 1016.55 1014.84 1015.55 1016.58 1016.37 1016.66
1010.68 1011.76 1012.17 1012.59 1013.35 1013.87 1014.22 1014.31 1014.43 1014.85 1014.77 1015.70 1016.05 1015.53 1014.99 1015.13 1015.48 1015.79 1015.75 1015.79 1015.93 1015.91 1016.16 1016.25 1016.34 1016.41 1016.36 1016.20 1015.84 1015.91 1016.78 1016.74 1016.16 1015.43 1015.06 1014.98 1015.09 1015.27 1015.83 1015.61 1016.84 1016.60 1016.45
1012.07 1011.19 1011.60 1012.21 1013.06 1013.59 1013.95 1014.11 1014.20 1014.65 1015.02 1014.90 1015.30 1014.90 1014.96 1014.95 1015.11 1015.40 1015.50 1015.64 1015.86 1016.13 1016.10 1016.17 1016.30 1016.36 1016.36 1016.27 1015.74 1015.48 1015.66 1015.98 1016.02 1016.15 1015.52 1015.32 1014.87 1015.08 1015.64 1015.51 1015.88 1016.78 1016.41
1009.96 1010.30 1010.64 1011.59 1012.66 1013.20 1013.66 1013.96 1014.26 1014.83 1016.13 1015.69 1015.56 1015.41 1015.34 1015.01 1014.82 1015.07 1015.33 1015.68 1015.99 1016.12 1016.10 1016.09 1016.15 1016.18 1016.26 1016.21 1015.89 1015.66 1015.59 1015.50 1015.72 1015.67 1015.63 1015.47 1015.00 1014.90 1015.82 1015.33 1015.82 1016.13 1016.26
1008.72 1009.36 1010.20 1010.88 1012.13 1012.81 1013.22 1013.71 1014.33 1014.76 1015.71 1015.55 1015.87 1016.07 1015.27 1015.03 1015.05 1015.07 1015.36 1015.73 1015.92 1016.24 1016.07 1015.96 1015.94 1016.07 1016.15 1016.11 1016.02 1016.06 1015.96 1015.56 1015.31 1015.40 1015.50 1015.73 1015.80 1015.47 1015.14 1014.95 1015.65 1016.13 1016.06
Thickness
5757 5762 5763 5766 5767 5767 5766 5766 5765 5766 5765 5764 5764 5763 5761 5760 5759 5760 5759 5757 5758 5758 5759 5758 5759 5759 5761 5762 5762 5761 5758 5756 5754 5754 5752 5751 5748 5748 5750 5751 5751 5749 5746
5758 5758 5761 5763 5765 5766 5764 5764 5762 5762 5762 5762 5761 5760 5759 5757 5757 5756 5757 5757 5756 5754 5756 5756 5758 5759 5760 5760 5762 5763 5762 5759 5757 5756 5756 5756 5754 5751 5750 5749 5748 5745 5744
5762 5760 5760 5760 5762 5762 5763 5762 5759 5759 5759 5759 5759 5758 5757 5755 5754 5755 5754 5755 5754 5754 5755 5756 5757 5758 5758 5758 5759 5760 5762 5761 5759 5757 5759 5757 5753 5751 5749 5748 5747 5747 5746
5762 5758 5758 5757 5759 5760 5759 5759 5758 5756 5757 5757 5757 5755 5752 5752 5752 5751 5753 5751 5752 5754 5755 5756 5758 5758 5758 5757 5758 5759 5761 5760 5758 5760 5761 5761 5757 5751 5751 5750 5748 5744 5741
5755 5756 5753 5753 5755 5756 5756 5756 5755 5754 5753 5754 5752 5751 5749 5746 5749 5749 5750 5751 5751 5753 5756 5756 5756 5757 5757 5758 5757 5758 5760 5761 5760 5764 5765 5760 5756 5751 5751 5751 5746 5740 5735
5755 5753 5750 5750 5752 5751 5751 5752 5752 5750 5750 5751 5751 5749 5745 5742 5743 5748 5748 5749 5751 5753 5755 5755 5755 5755 5755 5754 5756 5758 5759 5763 5764 5768 5765 5761 5756 5751 5749 5745 5740 5736 5730
5752 5752 5748 5747 5748 5747 5748 5748 5749 5748 5748 5748 5747 5744 5744 5740 5742 5748 5748 5751 5753 5753 5754 5755 5756 5756 5757 5757 5757 5760 5762 5765 5767 5769 5766 5760 5755 5753 5750 5742 5738 5734 5728
5752 5750 5746 5745 5744 5744 5744 5745 5745 5745 5745 5745 5745 5742 5744 5742 5745 5747 5749 5751 5753 5753 5754 5756 5757 5756 5758 5758 5761 5764 5765 5766 5772 5772 5767 5763 5758 5752 5749 5744 5739 5736 5731
5748 5744 5743 5742 5741 5742 5742 5742 5742 5742 5743 5743 5742 5740 5742 5742 5746 5748 5749 5751 5751 5752 5753 5755 5756 5755 5760 5760 5765 5768 5769 5770 5773 5775 5771 5767 5758 5753 5751 5747 5743 5740 5737
5743 5740 5737 5735 5738 5738 5740 5740 5740 5740 5742 5743 5744 5744 5744 5747 5750 5747 5748 5750 5753 5755 5754 5755 5756 5758 5762 5764 5771 5773 5774 5776 5777 5786 5778 5771 5764 5758 5755 5750 5748 5746 5743
5741 5738 5735 5733 5734 5735 5737 5737 5737 5739 5742 5744 5746 5748 5749 5752 5751 5750 5751 5755 5756 5758 5758 5760 5761 5763 5764 5767 5775 5779 5778 5778 5784 5776 5777 5772 5766 5762 5758 5755 5751 5748 5745
5743 5738 5732 5730 5730 5732 5734 5734 5736 5739 5742 5744 5748 5751 5748 5749 5755 5756 5756 5756 5760 5763 5766 5768 5770 5768 5769 5775 5783 5783 5778 5776 5783 5776 5767 5772 5768 5763 5759 5757 5754 5752 5747
5744 5738 5731 5727 5729 5730 5732 5735 5736 5736 5743 5749 5751 5758 5751 5749 5757 5758 5754 5760 5764 5766 5770 5776 5777 5774 5781 5784 5789 5790 5784 5777 5740 5765 5765 5769 5769 5766 5761 5757 5756 5754 5749
5745 5741 5738 5734 5734 5733 5735 5739 5735 5732 5737 5750 5757 5763 5763 5765 5763 5763 5766 5772 5774 5780 5781 5768 5782 5784 5789 5794 5797 5800 5791 5784 5767 5771 5770 5773 5771 5768 5763 5760 5758 5755 5752
5747 5752 5747 5741 5739 5743 5743 5743 5740 5736 5740 5755 5763 5765 5768 5765 5762 5762 5774 5790 5768 5767 5784 5781 5789 5791 5794 5796 5798 5797 5795 5789 5785 5781 5776 5783 5769 5763 5764 5763 5762 5759 5755
5753 5752 5752 5747 5745 5748 5749 5750 5754 5752 5755 5764 5768 5768 5766 5764 5764 5771 5764 5750 5738 5774 5786 5791 5792 5794 5798 5792 5794 5793 5793 5791 5788 5784 5781 5785 5773 5764 5766 5764 5764 5762 5757
5767 5760 5758 5755 5755 5755 5755 5759 5756 5763 5767 5767 5771 5768 5768 5763 5749 5757 5765 5775 5769 5772 5788 5792 5795 5796 5799 5796 5794 5789 5789 5791 5790 5790 5786 5777 5773 5767 5768 5765 5764 5762 5758
5774 5768 5766 5767 5762 5759 5759 5762 5761 5764 5770 5768 5769 5770 5771 5757 5775 5785 5773 5789 5780 5784 5791 5794 5794 5800 5797 5790 5791 5788 5783 5793 5781 5782 5778 5785 5778 5775 5767 5765 5765 5765 5762
5776 5771 5766 5767 5765 5762 5762 5753 5751 5759 5766 5773 5775 5773 5775 5776 5779 5782 5777 5778 5779 5787 5792 5791 5792 5799 5794 5784 5772 5778 5780 5794 5784 5788 5788 5790 5788 5777 5777 5776 5767 5763 5766
5778 5773 5770 5766 5766 5766 5765 5752 5743 5753 5766 5776 5772 5776 5775 5770 5769 5770 5775 5779 5782 5785 5789 5793 5794 5793 5790 5789 5785 5780 5772 5792 5787 5789 5798 5797 5791 5789 5780 5780 5778 5768 5768
5781 5775 5770 5766 5766 5766 5763 5762 5760 5761 5771 5771 5773 5776 5775 5772 5774 5774 5778 5781 5782 5784 5787 5790 5789 5785 5784 5786 5783 5776 5781 5788 5783 5786 5802 5800 5795 5791 5785 5785 5774 5766 5772
5777 5776 5774 5769 5767 5766 5766 5768 5769 5771 5776 5779 5779 5775 5777 5777 5777 5777 5779 5782 5785 5785 5786 5786 5786 5782 5783 5787 5779 5779 5755 5764 5774 5786 5798 5803 5789 5778 5790 5785 5775 5777 5779
5783 5772 5776 5774 5769 5768 5768 5770 5772 5771 5773 5764 5763 5773 5779 5781 5780 5780 5782 5783 5784 5786 5784 5786 5787 5784 5778 5784 5787 5778 5761 5759 5775 5789 5793 5795 5791 5789 5787 5794 5783 5778 5779
5757 5780 5782 5779 5772 5770 5771 5770 5771 5769 5766 5771 5770 5779 5783 5784 5784 5784 5785 5786 5785 5785 5786 5787 5788 5787 5785 5780 5787 5790 5788 5783 5771 5770 5788 5792 5798 5795 5793 5796 5792 5779 5785
5787 5789 5792 5784 5776 5772 5772 5772 5771 5765 5756 5765 5768 5772 5779 5785 5787 5787 5787 5786 5786 5786 5787 5788 5787 5787 5787 5784 5785 5787 5788 5790 5788 5782 5775 5783 5795 5798 5792 5796 5792 5785 5785
5803 5800 5795 5789 5779 5775 5774 5773 5769 5764 5760 5766 5765 5764 5777 5784 5787 5787 5787 5785 5785 5785 5788 5790 5791 5789 5787 5788 5788 5788 5785 5786 5786 5786 5783 5782 5782 5791 5797 5799 5792 5785 5786